When you browse on this site, cookies collect data to enhance your experience and personalize the content and advertising you see.
Visit our Privacy Policy to learn more. By continuing to use the site, you agree to this use of cookies and data.
  • In Hungary
  • List of Countries
  • For 7 days
  • Water Temperature
  • Weather Map
  • News
  • Weather Widgets
  • user-avatar
    Login

    Hourly Weather Tigirek

    Today, 17 August, Saturday

    Time Temperature Precipitation Wind Pressure Humidity
    00:00 +14°C° 0 mm 1 mps 707 mmHg 74%
    01:00 +14°C° 0 mm 1 mps 707 mmHg 72%
    02:00 +14°C° 0 mm 1 mps 707 mmHg 71%
    03:00 +15°C° 0 mm 1 mps 707 mmHg 69%
    04:00 +15°C° 0 mm 1 mps 708 mmHg 70%
    05:00 +15°C° 0 mm 1 mps 708 mmHg 71%
    06:00 +15°C° 0 mm 1 mps 708 mmHg 72%
    07:00 +18°C° 0 mm 1 mps 709 mmHg 65%
    08:00 +20°C° 0 mm 1 mps 709 mmHg 57%
    09:00 +22°C° 0 mm 1 mps 709 mmHg 50%
    10:00 +23°C° 0.1 mm 1 mps 709 mmHg 50%
    11:00 +24°C° 0.1 mm 1 mps 709 mmHg 50%
    12:00 +24°C° 0 mm 2 mps 709 mmHg 50%
    13:00 +23°C° 0.6 mm 1 mps 708 mmHg 55%
    14:00 +23°C° 0.6 mm 1 mps 708 mmHg 61%
    15:00 +22°C° 0.6 mm 1 mps 707 mmHg 66%
    16:00 +22°C° 0.6 mm 1 mps 708 mmHg 70%
    17:00 +21°C° 0.6 mm 1 mps 708 mmHg 74%
    18:00 +21°C° 0.6 mm 1 mps 708 mmHg 78%
    19:00 +19°C° 0.1 mm 1 mps 708 mmHg 81%
    20:00 +16°C° 0.1 mm 1 mps 707 mmHg 84%
    21:00 +14°C° 0.1 mm 1 mps 707 mmHg 86%
    22:00 +13°C° 0 mm 1 mps 707 mmHg 87%
    23:00 +13°C° 0 mm 1 mps 707 mmHg 87%

    Tomorrow, 18 August, Sunday

    Time Temperature Precipitation Wind Pressure Humidity
    00:00 +13°C° 0 mm 1 mps 707 mmHg 87%
    01:00 +13°C° 0 mm 1 mps 707 mmHg 87%
    02:00 +12°C° 0 mm 1 mps 706 mmHg 88%
    03:00 +12°C° 0 mm 1 mps 706 mmHg 88%
    04:00 +12°C° 0 mm 1 mps 706 mmHg 89%
    05:00 +12°C° 0 mm 1 mps 707 mmHg 89%
    06:00 +12°C° 0 mm 1 mps 707 mmHg 89%
    07:00 +15°C° 0 mm 1 mps 707 mmHg 81%
    08:00 +18°C° 0 mm 1 mps 708 mmHg 74%
    09:00 +21°C° 0 mm 1 mps 708 mmHg 67%
    10:00 +21°C° 0.6 mm 1 mps 708 mmHg 70%
    11:00 +20°C° 0.6 mm 2 mps 708 mmHg 73%
    12:00 +20°C° 0.6 mm 2 mps 708 mmHg 76%
    13:00 +21°C° 0.5 mm 2 mps 708 mmHg 73%
    14:00 +21°C° 0.5 mm 2 mps 708 mmHg 70%
    15:00 +23°C° 0.5 mm 2 mps 708 mmHg 67%
    16:00 +23°C° 0.3 mm 1 mps 709 mmHg 69%
    17:00 +22°C° 0.3 mm 1 mps 709 mmHg 72%
    18:00 +22°C° 0.3 mm 1 mps 709 mmHg 74%
    19:00 +20°C° 0 mm 1 mps 709 mmHg 78%
    20:00 +18°C° 0 mm 1 mps 709 mmHg 81%
    21:00 +15°C° 0 mm 1 mps 709 mmHg 84%
    22:00 +15°C° 0 mm 1 mps 710 mmHg 84%
    23:00 +14°C° 0 mm 1 mps 710 mmHg 84%

    Day after tomorrow, 19 August, Monday

    Time Temperature Precipitation Wind Pressure Humidity
    00:00 +14°C° 0 mm 1 mps 710 mmHg 85%
    01:00 +14°C° 0 mm 1 mps 710 mmHg 85%
    02:00 +14°C° 0 mm 1 mps 710 mmHg 85%
    03:00 +13°C° 0 mm 1 mps 710 mmHg 85%
    04:00 +13°C° 0 mm 1 mps 710 mmHg 85%
    05:00 +13°C° 0 mm 1 mps 711 mmHg 85%
    06:00 +13°C° 0 mm 1 mps 711 mmHg 85%
    07:00 +16°C° 0 mm 1 mps 711 mmHg 81%
    08:00 +17°C° 0 mm 0 mps 712 mmHg 77%
    09:00 +19°C° 0 mm 0 mps 712 mmHg 72%
    10:00 +22°C° 0.1 mm 1 mps 712 mmHg 66%
    11:00 +23°C° 0.1 mm 1 mps 712 mmHg 59%
    12:00 +25°C° 0.1 mm 1 mps 712 mmHg 52%
    13:00 +24°C° 0.1 mm 1 mps 712 mmHg 55%
    14:00 +24°C° 0.1 mm 2 mps 711 mmHg 58%
    15:00 +24°C° 0.1 mm 2 mps 711 mmHg 60%
    16:00 +23°C° 0.2 mm 1 mps 711 mmHg 64%
    17:00 +23°C° 0.2 mm 1 mps 711 mmHg 69%
    18:00 +22°C° 0.2 mm 1 mps 711 mmHg 73%
    19:00 +20°C° 0.1 mm 1 mps 711 mmHg 78%
    20:00 +18°C° 0.1 mm 1 mps 711 mmHg 83%
    21:00 +15°C° 0.1 mm 1 mps 711 mmHg 88%
    22:00 +15°C° 0.6 mm 1 mps 711 mmHg 91%
    23:00 +15°C° 0.6 mm 1 mps 710 mmHg 94%

    20 August, Tuesday

    Time Temperature Precipitation Wind Pressure Humidity
    00:00 +14°C° 0.6 mm 0 mps 710 mmHg 98%
    01:00 +13°C° 1.3 mm 0 mps 710 mmHg 98%
    02:00 +13°C° 1.3 mm 0 mps 710 mmHg 98%
    03:00 +13°C° 1.3 mm 0 mps 709 mmHg 98%
    04:00 +13°C° 0.4 mm 0 mps 709 mmHg 97%
    05:00 +14°C° 0.4 mm 1 mps 709 mmHg 97%
    06:00 +13°C° 0.4 mm 1 mps 709 mmHg 97%
    07:00 +14°C° 0.2 mm 1 mps 710 mmHg 96%
    08:00 +15°C° 0.2 mm 1 mps 710 mmHg 95%
    09:00 +16°C° 0.2 mm 1 mps 710 mmHg 93%
    10:00 +18°C° 0.3 mm 1 mps 710 mmHg 83%
    11:00 +18°C° 0.3 mm 2 mps 710 mmHg 73%
    12:00 +19°C° 0.3 mm 2 mps 710 mmHg 63%
    13:00 +19°C° 0.1 mm 2 mps 710 mmHg 62%
    14:00 +19°C° 0.1 mm 2 mps 710 mmHg 60%
    15:00 +19°C° 0.1 mm 2 mps 710 mmHg 58%
    16:00 +19°C° 0.2 mm 2 mps 710 mmHg 62%
    17:00 +18°C° 0.2 mm 2 mps 710 mmHg 66%
    18:00 +18°C° 0.2 mm 1 mps 710 mmHg 70%
    19:00 +16°C° 0.1 mm 1 mps 710 mmHg 74%
    20:00 +14°C° 0.1 mm 1 mps 710 mmHg 78%
    21:00 +13°C° 0.1 mm 1 mps 710 mmHg 81%
    22:00 +12°C° 0 mm 1 mps 709 mmHg 83%
    23:00 +11°C° 0 mm 1 mps 709 mmHg 85%

    21 August, Wednesday

    Time Temperature Precipitation Wind Pressure Humidity
    00:00 +9°C° 0 mm 0 mps 709 mmHg 87%
    01:00 +10°C° 0 mm 1 mps 709 mmHg 86%
    02:00 +10°C° 0 mm 1 mps 709 mmHg 86%
    03:00 +10°C° 0 mm 1 mps 709 mmHg 85%
    04:00 +10°C° 0 mm 1 mps 709 mmHg 84%
    05:00 +11°C° 0 mm 1 mps 709 mmHg 83%
    06:00 +11°C° 0 mm 1 mps 708 mmHg 83%
    07:00 +12°C° 0 mm 1 mps 709 mmHg 77%
    08:00 +13°C° 0 mm 1 mps 709 mmHg 72%
    09:00 +15°C° 0 mm 2 mps 709 mmHg 67%
    10:00 +15°C° 0 mm 2 mps 709 mmHg 66%
    11:00 +15°C° 0 mm 2 mps 708 mmHg 64%
    12:00 +16°C° 0 mm 2 mps 708 mmHg 63%
    13:00 +16°C° 0.1 mm 2 mps 708 mmHg 61%
    14:00 +17°C° 0.1 mm 2 mps 708 mmHg 60%
    15:00 +18°C° 0.1 mm 3 mps 708 mmHg 59%
    16:00 +17°C° 0.2 mm 2 mps 708 mmHg 66%
    17:00 +17°C° 0.2 mm 2 mps 708 mmHg 73%
    18:00 +16°C° 0.2 mm 1 mps 707 mmHg 80%
    19:00 +14°C° 0.1 mm 1 mps 707 mmHg 82%
    20:00 +13°C° 0.1 mm 1 mps 707 mmHg 85%
    21:00 +10°C° 0.1 mm 0 mps 707 mmHg 87%
    22:00 +10°C° 0 mm 0 mps 707 mmHg 88%
    23:00 +10°C° 0 mm 0 mps 707 mmHg 89%

    22 August, Thursday

    Time Temperature Precipitation Wind Pressure Humidity
    00:00 +10°C° 0 mm 1 mps 706 mmHg 90%
    01:00 +10°C° 0 mm 1 mps 706 mmHg 91%
    02:00 +9°C° 0 mm 1 mps 706 mmHg 91%
    03:00 +8°C° 0 mm 0 mps 706 mmHg 91%
    04:00 +8°C° 0 mm 0 mps 706 mmHg 92%
    05:00 +8°C° 0 mm 0 mps 706 mmHg 92%
    06:00 +8°C° 0 mm 0 mps 706 mmHg 92%
    07:00 +11°C° 0 mm 1 mps 707 mmHg 85%
    08:00 +13°C° 0 mm 1 mps 707 mmHg 79%
    09:00 +15°C° 0 mm 1 mps 707 mmHg 73%
    10:00 +16°C° 0 mm 1 mps 707 mmHg 66%
    11:00 +17°C° 0 mm 2 mps 707 mmHg 59%
    12:00 +18°C° 0 mm 2 mps 707 mmHg 51%
    13:00 +18°C° 0 mm 2 mps 707 mmHg 50%
    14:00 +19°C° 0 mm 2 mps 707 mmHg 48%
    15:00 +19°C° 0 mm 3 mps 707 mmHg 46%
    16:00 +18°C° 0 mm 2 mps 707 mmHg 50%
    17:00 +18°C° 0 mm 2 mps 707 mmHg 54%
    18:00 +17°C° 0 mm 2 mps 707 mmHg 57%
    19:00 +16°C° 0 mm 2 mps 707 mmHg 62%
    20:00 +14°C° 0 mm 2 mps 707 mmHg 67%
    21:00 +12°C° 0 mm 2 mps 707 mmHg 71%
    22:00 +12°C° 0 mm 2 mps 707 mmHg 71%
    23:00 +12°C° 0 mm 2 mps 707 mmHg 70%
    Show more